Location: Boda
(47.1872°N, 9.5454°E)
Time: 09:50:27
(UTC+00:00)

Cosmos 1725 Rocket - Pass Details

Date: 14 May 2021
Orbit: 961 x 991 km, 82.9° (Epoch: 16 June)

Event Time Altitude Azimuth Distance (km) Brightness Sun altitude
Rises 01:17:37 0° 350° (N) 3,695 7.8 -18.9°
Reaches altitude 10° 01:20:09 10° 351° (N) 2,739 7.1 -18.7°
Maximum altitude 01:26:26 88° 265° (W) 980 3.9 -18.1°
Enters shadow 01:31:01 19° 174° (S) 2,103 5.3 -17.7°
